Time,TemperatureF,DewpointF,PressureIn,WindDirection,WindDirectionDegrees,WindSpeedMPH,WindSpeedGustMPH,Humidity,HourlyPrecipIn,Conditions,Clouds,dailyrainin,SoftwareType,DateUTC
2013-06-17 00:01:00,82.0,72.1,29.18,SE,145,3.1,11.4,72,0.00,,,0.00,LWC V2.10 B1813,2013-06-17 05:01:00,
2013-06-17 00:06:00,81.7,71.8,29.18,South,178,8.3,9.2,72,0.00,,,0.00,LWC V2.10 B1813,2013-06-17 05:06:00,
2013-06-17 00:11:00,81.5,72.0,29.18,South,183,8.3,11.0,73,0.00,,,0.00,LWC V2.10 B1813,2013-06-17 05:11:00,
2013-06-17 00:16:00,81.3,72.2,29.18,South,179,11.0,11.0,74,0.00,,,0.00,LWC V2.10 B1813,2013-06-17 05:16:00,
2013-06-17 00:21:00,81.1,72.0,29.18,SE,126,8.1,11.0,74,0.00,,,0.00,LWC V2.10 B1813,2013-06-17 05:21:00,
2013-06-17 00:26:00,81.1,72.0,29.18,South,172,6.3,8.1,74,0.00,,,0.00,LWC V2.10 B1813,2013-06-17 05:26:00,
2013-06-17 00:31:00,81.0,72.3,29.18,SSE,159,8.7,11.0,75,0.00,,,0.00,LWC V2.10 B1813,2013-06-17 05:31:00,
2013-06-17 00:36:00,80.8,72.1,29.18,South,181,6.3,10.5,75,0.00,,,0.00,LWC V2.10 B1813,2013-06-17 05:36:00,
2013-06-17 00:41:00,80.6,71.9,29.18,SSW,209,4.0,10.5,75,0.00,,,0.00,LWC V2.10 B1813,2013-06-17 05:41:00,
2013-06-17 00:46:00,80.6,71.5,29.18,South,178,11.0,11.0,74,0.00,,,0.00,LWC V2.10 B1813,2013-06-17 05:46:00,
2013-06-17 00:51:00,80.4,71.3,29.18,ESE,112,12.3,13.2,74,0.00,,,0.00,LWC V2.10 B1813,2013-06-17 05:51:00,
2013-06-17 00:56:00,80.2,71.2,29.18,SE,124,4.0,13.2,74,0.00,,,0.00,LWC V2.10 B1813,2013-06-17 05:56:00,
2013-06-17 01:01:00,80.1,71.0,29.18,South,177,4.9,7.6,74,0.00,,,0.00,LWC V2.10 B1813,2013-06-17 06:01:00,
2013-06-17 01:06:00,79.7,71.1,29.18,ESE,117,6.3,8.3,75,0.00,,,0.00,LWC V2.10 B1813,2013-06-17 06:06:00,
2013-06-17 01:11:00,79.7,71.1,29.18,South,179,8.1,12.8,75,0.00,,,0.00,LWC V2.10 B1813,2013-06-17 06:11:00,
2013-06-17 01:16:00,79.5,70.9,29.18,ESE,114,10.1,10.1,75,0.00,,,0.00,LWC V2.10 B1813,2013-06-17 06:16:00,
2013-06-17 01:21:00,79.3,70.7,29.18,South,173,5.8,8.7,75,0.00,,,0.00,LWC V2.10 B1813,2013-06-17 06:21:00,
2013-06-17 01:26:00,79.3,70.7,29.18,ESE,120,3.6,8.3,75,0.00,,,0.00,LWC V2.10 B1813,2013-06-17 06:26:00,
2013-06-17 01:31:00,79.2,70.5,29.18,ESE,120,3.6,5.8,75,0.00,,,0.00,LWC V2.10 B1813,2013-06-17 06:31:00,
2013-06-17 01:36:00,79.2,70.9,29.18,South,169,4.0,7.6,76,0.00,,,0.00,LWC V2.10 B1813,2013-06-17 06:36:00,
2013-06-17 01:41:00,79.0,71.1,29.18,SE,142,6.3,6.3,77,0.00,,,0.00,LWC V2.10 B1813,2013-06-17 06:41:00,
2013-06-17 01:46:00,79.0,71.1,29.18,South,187,4.9,10.1,77,0.00,,,0.00,LWC V2.10 B1813,2013-06-17 06:46:00,
2013-06-17 01:51:00,78.8,71.0,29.18,SSE,148,4.9,4.9,77,0.00,,,0.00,LWC V2.10 B1813,2013-06-17 06:51:00,
2013-06-17 01:56:00,78.4,71.0,29.18,SSE,151,3.6,8.1,78,0.00,,,0.00,LWC V2.10 B1813,2013-06-17 06:56:00,
2013-06-17 02:01:00,78.3,71.2,29.18,SSE,160,3.1,5.8,79,0.00,,,0.00,LWC V2.10 B1813,2013-06-17 07:01:00,
2013-06-17 02:06:00,78.1,71.0,29.18,SSE,166,5.8,7.6,79,0.00,,,0.00,LWC V2.10 B1813,2013-06-17 07:06:00,
2013-06-17 02:11:00,77.9,71.2,29.18,SE,131,3.6,7.6,80,0.00,,,0.00,LWC V2.10 B1813,2013-06-17 07:11:00,
2013-06-17 02:16:00,77.9,71.2,29.18,SSW,195,3.1,4.9,80,0.00,,,0.00,LWC V2.10 B1813,2013-06-17 07:16:00,
2013-06-17 02:21:00,77.7,71.0,29.18,SE,141,4.9,4.9,80,0.00,,,0.00,LWC V2.10 B1813,2013-06-17 07:21:00,
2013-06-17 02:26:00,77.5,70.9,29.18,SSE,164,4.0,5.8,80,0.00,,,0.00,LWC V2.10 B1813,2013-06-17 07:26:00,
2013-06-17 02:31:00,77.4,70.7,29.18,SE,125,3.6,5.4,80,0.00,,,0.00,LWC V2.10 B1813,2013-06-17 07:31:00,
2013-06-17 02:36:00,77.4,71.1,29.18,SSE,149,6.3,6.3,81,0.00,,,0.00,LWC V2.10 B1813,2013-06-17 07:36:00,
2013-06-17 02:41:00,77.2,71.2,29.18,SSW,193,4.0,8.7,82,0.00,,,0.00,LWC V2.10 B1813,2013-06-17 07:41:00,
2013-06-17 02:46:00,77.2,71.2,29.18,SSW,195,2.2,4.9,82,0.00,,,0.00,LWC V2.10 B1813,2013-06-17 07:46:00,
2013-06-17 02:51:00,77.2,71.6,29.18,SSE,154,7.6,8.7,83,0.00,,,0.00,LWC V2.10 B1813,2013-06-17 07:51:00,
2013-06-17 02:56:00,77.0,71.4,29.18,South,173,8.1,8.3,83,0.00,,,0.00,LWC V2.10 B1813,2013-06-17 07:56:00,
2013-06-17 03:01:00,76.8,71.2,29.15,SE,139,3.6,5.8,83,0.00,,,0.00,LWC V2.10 B1813,2013-06-17 08:01:00,
2013-06-17 03:06:00,76.8,71.2,29.15,SSE,154,8.3,8.3,83,0.00,,,0.00,LWC V2.10 B1813,2013-06-17 08:06:00,
2013-06-17 03:11:00,76.8,71.2,29.15,SE,125,4.0,9.6,83,0.00,,,0.00,LWC V2.10 B1813,2013-06-17 08:11:00,
2013-06-17 03:16:00,76.6,71.4,29.15,South,172,5.4,8.1,84,0.00,,,0.00,LWC V2.10 B1813,2013-06-17 08:16:00,
2013-06-17 03:21:00,76.6,71.4,29.15,SSE,151,8.3,9.2,84,0.00,,,0.00,LWC V2.10 B1813,2013-06-17 08:21:00,
2013-06-17 03:26:00,76.6,71.4,29.15,South,179,5.8,8.3,84,0.00,,,0.00,LWC V2.10 B1813,2013-06-17 08:26:00,
2013-06-17 03:31:00,76.8,71.6,29.15,SE,143,10.1,10.5,84,0.00,,,0.00,LWC V2.10 B1813,2013-06-17 08:31:00,
2013-06-17 03:36:00,76.6,71.4,29.15,SSE,155,10.1,13.2,84,0.00,,,0.00,LWC V2.10 B1813,2013-06-17 08:36:00,
2013-06-17 03:41:00,76.6,71.4,29.15,SSE,164,10.1,12.3,84,0.00,,,0.00,LWC V2.10 B1813,2013-06-17 08:41:00,
2013-06-17 03:46:00,76.5,71.3,29.15,SSE,151,10.1,12.8,84,0.00,,,0.00,LWC V2.10 B1813,2013-06-17 08:46:00,
2013-06-17 03:51:00,76.5,71.3,29.15,SE,135,3.6,5.4,84,0.00,,,0.00,LWC V2.10 B1813,2013-06-17 08:51:00,
2013-06-17 03:56:00,76.5,71.6,29.15,South,176,3.1,11.0,85,0.00,,,0.00,LWC V2.10 B1813,2013-06-17 08:56:00,
2013-06-17 04:01:00,76.5,71.6,29.15,SE,139,8.3,10.1,85,0.00,,,0.00,LWC V2.10 B1813,2013-06-17 09:01:00,
2013-06-17 04:06:00,76.3,71.1,29.15,SSE,157,5.8,6.3,84,0.00,,,0.00,LWC V2.10 B1813,2013-06-17 09:06:00,
2013-06-17 04:11:00,76.3,71.4,29.15,SSE,150,8.7,8.7,85,0.00,,,0.00,LWC V2.10 B1813,2013-06-17 09:11:00,
2013-06-17 04:16:00,76.5,71.6,29.15,South,171,8.1,9.6,85,0.00,,,0.00,LWC V2.10 B1813,2013-06-17 09:16:00,
2013-06-17 04:21:00,76.3,71.1,29.15,SSW,201,12.8,12.8,84,0.00,,,0.00,LWC V2.10 B1813,2013-06-17 09:21:00,
2013-06-17 04:26:00,76.3,71.1,29.15,SE,146,9.2,9.2,84,0.00,,,0.00,LWC V2.10 B1813,2013-06-17 09:26:00,
2013-06-17 04:31:00,76.3,71.1,29.15,South,184,2.2,8.7,84,0.00,,,0.00,LWC V2.10 B1813,2013-06-17 09:31:00,
2013-06-17 04:36:00,76.1,70.9,29.15,SSE,160,2.2,6.3,84,0.00,,,0.00,LWC V2.10 B1813,2013-06-17 09:36:00,
2013-06-17 04:41:00,76.1,70.9,29.15,South,179,5.4,6.3,84,0.00,,,0.00,LWC V2.10 B1813,2013-06-17 09:41:00,
2013-06-17 04:46:00,76.1,70.9,29.15,SSE,154,5.4,8.3,84,0.00,,,0.00,LWC V2.10 B1813,2013-06-17 09:46:00,
2013-06-17 04:51:00,76.3,71.1,29.15,SSE,162,7.6,7.6,84,0.00,,,0.00,LWC V2.10 B1813,2013-06-17 09:51:00,
2013-06-17 04:56:00,76.3,71.1,29.15,South,181,4.0,8.1,84,0.00,,,0.00,LWC V2.10 B1813,2013-06-17 09:56:00,
2013-06-17 05:01:00,76.3,71.1,29.15,South,175,5.4,7.6,84,0.00,,,0.00,LWC V2.10 B1813,2013-06-17 10:01:00,
2013-06-17 05:06:00,76.3,71.1,29.15,SSE,168,8.7,10.1,84,0.00,,,0.00,LWC V2.10 B1813,2013-06-17 10:06:00,
2013-06-17 05:11:00,76.3,71.1,29.15,ESE,115,6.3,6.3,84,0.00,,,0.00,LWC V2.10 B1813,2013-06-17 10:11:00,
2013-06-17 05:16:00,76.5,71.3,29.15,SSW,195,3.6,5.4,84,0.00,,,0.00,LWC V2.10 B1813,2013-06-17 10:16:00,
2013-06-17 05:21:00,76.1,70.9,29.15,SSE,161,9.2,9.2,84,0.00,,,0.00,LWC V2.10 B1813,2013-06-17 10:21:00,
2013-06-17 05:26:00,76.1,70.9,29.15,SSE,161,6.3,6.3,84,0.00,,,0.00,LWC V2.10 B1813,2013-06-17 10:26:00,
2013-06-17 05:31:00,76.1,70.9,29.15,South,173,4.9,6.3,84,0.00,,,0.00,LWC V2.10 B1813,2013-06-17 10:31:00,
2013-06-17 05:36:00,75.9,70.7,29.15,SE,144,3.1,8.7,84,0.00,,,0.00,LWC V2.10 B1813,2013-06-17 10:36:00,
2013-06-17 05:41:00,75.9,70.7,29.15,South,180,3.6,11.0,84,0.00,,,0.00,LWC V2.10 B1813,2013-06-17 10:41:00,
2013-06-17 05:46:00,75.9,71.1,29.15,South,178,8.3,8.3,85,0.00,,,0.00,LWC V2.10 B1813,2013-06-17 10:46:00,
2013-06-17 05:51:00,75.9,70.7,29.15,South,185,5.8,7.6,84,0.00,,,0.00,LWC V2.10 B1813,2013-06-17 10:51:00,
2013-06-17 05:56:00,75.9,70.7,29.15,South,179,6.3,7.6,84,0.00,,,0.00,LWC V2.10 B1813,2013-06-17 10:56:00,
2013-06-17 06:01:00,75.9,70.7,29.15,South,184,3.1,5.4,84,0.00,,,0.00,LWC V2.10 B1813,2013-06-17 11:01:00,
2013-06-17 06:06:00,76.1,70.9,29.18,SSE,166,9.6,9.6,84,0.00,,,0.00,LWC V2.10 B1813,2013-06-17 11:06:00,
2013-06-17 06:11:00,75.9,70.7,29.18,South,182,8.3,8.3,84,0.00,,,0.00,LWC V2.10 B1813,2013-06-17 11:11:00,
2013-06-17 06:16:00,75.9,70.7,29.18,SSE,160,2.2,5.4,84,0.00,,,0.00,LWC V2.10 B1813,2013-06-17 11:16:00,
2013-06-17 06:21:00,75.7,70.5,29.18,South,185,2.2,5.4,84,0.00,,,0.00,LWC V2.10 B1813,2013-06-17 11:21:00,
2013-06-17 06:26:00,75.7,70.5,29.18,SW,214,2.7,6.3,84,0.00,,,0.00,LWC V2.10 B1813,2013-06-17 11:26:00,
2013-06-17 06:31:00,75.7,70.5,29.18,South,170,0.0,3.6,84,0.00,,,0.00,LWC V2.10 B1813,2013-06-17 11:31:00,
2013-06-17 06:36:00,75.7,70.5,29.18,South,187,3.6,4.9,84,0.00,,,0.00,LWC V2.10 B1813,2013-06-17 11:36:00,
2013-06-17 06:41:00,75.7,70.5,29.18,SSE,157,3.1,8.1,84,0.00,,,0.00,LWC V2.10 B1813,2013-06-17 11:41:00,
2013-06-17 06:46:00,75.9,70.4,29.18,SSW,207,0.0,3.6,83,0.00,,,0.00,LWC V2.10 B1813,2013-06-17 11:46:00,
2013-06-17 06:51:00,75.7,70.2,29.18,South,179,0.0,2.7,83,0.00,,,0.00,LWC V2.10 B1813,2013-06-17 11:51:00,
2013-06-17 06:56:00,75.7,70.2,29.18,SSE,156,3.1,3.6,83,0.00,,,0.00,LWC V2.10 B1813,2013-06-17 11:56:00,
2013-06-17 07:01:00,75.6,70.0,29.18,SSE,163,0.0,2.7,83,0.00,,,0.00,LWC V2.10 B1813,2013-06-17 12:01:00,
2013-06-17 07:06:00,75.6,70.0,29.18,SSE,157,2.7,4.0,83,0.00,,,0.00,LWC V2.10 B1813,2013-06-17 12:06:00,
2013-06-17 07:11:00,75.6,70.0,29.18,SSE,167,2.2,5.4,83,0.00,,,0.00,LWC V2.10 B1813,2013-06-17 12:11:00,
2013-06-17 07:16:00,75.6,70.0,29.18,SSE,157,3.1,5.8,83,0.00,,,0.00,LWC V2.10 B1813,2013-06-17 12:16:00,
2013-06-17 07:21:00,75.6,70.4,29.18,SSE,154,4.9,5.8,84,0.00,,,0.00,LWC V2.10 B1813,2013-06-17 12:21:00,
2013-06-17 07:26:00,75.6,70.4,29.18,SE,146,4.0,4.0,84,0.00,,,0.00,LWC V2.10 B1813,2013-06-17 12:26:00,
2013-06-17 07:31:00,75.7,70.2,29.18,SE,145,3.6,4.9,83,0.00,,,0.00,LWC V2.10 B1813,2013-06-17 12:31:00,
2013-06-17 07:36:00,75.9,70.4,29.18,SSE,166,3.6,3.6,83,0.00,,,0.00,LWC V2.10 B1813,2013-06-17 12:36:00,
2013-06-17 07:41:00,75.9,70.4,29.18,SSW,199,3.6,4.9,83,0.00,,,0.00,LWC V2.10 B1813,2013-06-17 12:41:00,
2013-06-17 07:46:00,75.9,70.4,29.18,SE,136,2.2,4.9,83,0.00,,,0.00,LWC V2.10 B1813,2013-06-17 12:46:00,
2013-06-17 07:51:00,75.9,70.4,29.18,South,186,2.2,4.9,83,0.00,,,0.00,LWC V2.10 B1813,2013-06-17 12:51:00,
2013-06-17 07:56:00,76.1,70.5,29.18,South,172,0.0,2.7,83,0.00,,,0.00,LWC V2.10 B1813,2013-06-17 12:56:00,
2013-06-17 08:01:00,76.3,70.7,29.18,SW,214,0.0,0.0,83,0.00,,,0.00,LWC V2.10 B1813,2013-06-17 13:01:00,
2013-06-17 08:06:00,76.6,70.7,29.18,SW,223,4.0,4.0,82,0.00,,,0.00,LWC V2.10 B1813,2013-06-17 13:06:00,
2013-06-17 08:11:00,76.8,70.9,29.18,SSW,212,5.4,5.4,82,0.00,,,0.00,LWC V2.10 B1813,2013-06-17 13:11:00,
2013-06-17 08:16:00,77.0,70.7,29.18,SSE,156,4.9,4.9,81,0.00,,,0.00,LWC V2.10 B1813,2013-06-17 13:16:00,
2013-06-17 08:21:00,77.4,71.1,29.18,SW,229,5.4,5.4,81,0.00,,,0.00,LWC V2.10 B1813,2013-06-17 13:21:00,
2013-06-17 08:26:00,77.5,70.9,29.18,SSW,205,3.1,6.3,80,0.00,,,0.00,LWC V2.10 B1813,2013-06-17 13:26:00,
2013-06-17 08:31:00,77.5,70.9,29.18,South,175,4.0,5.4,80,0.00,,,0.00,LWC V2.10 B1813,2013-06-17 13:31:00,
2013-06-17 08:36:00,77.9,71.2,29.18,South,172,2.7,5.8,80,0.00,,,0.00,LWC V2.10 B1813,2013-06-17 13:36:00,
2013-06-17 08:41:00,77.9,70.8,29.18,SSW,205,2.7,4.9,79,0.00,,,0.00,LWC V2.10 B1813,2013-06-17 13:41:00,
2013-06-17 08:46:00,77.9,70.8,29.20,SW,214,7.6,8.1,79,0.00,,,0.00,LWC V2.10 B1813,2013-06-17 13:46:00,
2013-06-17 08:51:00,77.9,70.8,29.20,South,174,5.8,5.8,79,0.00,,,0.00,LWC V2.10 B1813,2013-06-17 13:51:00,
2013-06-17 08:56:00,78.3,71.2,29.20,SW,216,3.1,5.8,79,0.00,,,0.00,LWC V2.10 B1813,2013-06-17 13:56:00,
2013-06-17 09:01:00,78.6,71.5,29.18,SSW,207,4.0,6.3,79,0.00,,,0.00,LWC V2.10 B1813,2013-06-17 14:01:00,
2013-06-17 09:06:00,78.8,71.3,29.18,SSW,205,3.1,4.9,78,0.00,,,0.00,LWC V2.10 B1813,2013-06-17 14:06:00,
2013-06-17 09:11:00,79.3,71.5,29.18,SSW,203,4.0,8.1,77,0.00,,,0.00,LWC V2.10 B1813,2013-06-17 14:11:00,
2013-06-17 09:16:00,79.3,71.1,29.20,SW,223,4.0,5.4,76,0.00,,,0.00,LWC V2.10 B1813,2013-06-17 14:16:00,
2013-06-17 09:21:00,79.7,71.4,29.20,SW,226,5.8,7.6,76,0.00,,,0.00,LWC V2.10 B1813,2013-06-17 14:21:00,
2013-06-17 09:26:00,79.9,70.8,29.20,SW,219,3.6,8.7,74,0.00,,,0.00,LWC V2.10 B1813,2013-06-17 14:26:00,
2013-06-17 09:32:00,80.2,71.2,29.20,SSW,199,5.8,7.6,74,0.00,,,0.00,LWC V2.10 B1813,2013-06-17 14:32:00,
2013-06-17 09:37:00,80.2,71.2,29.20,SSW,203,3.6,5.4,74,0.00,,,0.00,LWC V2.10 B1813,2013-06-17 14:37:00,
2013-06-17 09:42:00,80.6,71.1,29.20,SSW,207,6.3,6.3,73,0.00,,,0.00,LWC V2.10 B1813,2013-06-17 14:42:00,
2013-06-17 09:47:00,80.6,70.7,29.20,SW,218,6.3,7.6,72,0.00,,,0.00,LWC V2.10 B1813,2013-06-17 14:47:00,
2013-06-17 09:52:00,81.0,71.1,29.20,SW,234,5.4,6.3,72,0.00,,,0.00,LWC V2.10 B1813,2013-06-17 14:52:00,
2013-06-17 09:57:00,80.8,70.5,29.20,SW,223,7.2,7.2,71,0.00,,,0.00,LWC V2.10 B1813,2013-06-17 14:57:00,
2013-06-17 10:02:00,80.6,69.9,29.20,South,191,8.1,8.3,70,0.00,,,0.00,LWC V2.10 B1813,2013-06-17 15:02:00,
2013-06-17 10:07:00,80.6,70.3,29.20,SW,219,5.4,6.3,71,0.00,,,0.00,LWC V2.10 B1813,2013-06-17 15:07:00,
2013-06-17 10:12:00,81.1,70.8,29.20,South,178,4.9,5.4,71,0.00,,,0.00,LWC V2.10 B1813,2013-06-17 15:12:00,
2013-06-17 10:17:00,81.7,70.5,29.20,SW,216,5.8,8.7,69,0.00,,,0.00,LWC V2.10 B1813,2013-06-17 15:17:00,
2013-06-17 10:22:00,82.4,70.8,29.20,SW,218,4.9,8.3,68,0.00,,,0.00,LWC V2.10 B1813,2013-06-17 15:22:00,
2013-06-17 10:27:00,82.4,70.8,29.20,SW,217,3.1,10.1,68,0.00,,,0.00,LWC V2.10 B1813,2013-06-17 15:27:00,
2013-06-17 10:32:00,83.1,71.0,29.20,SW,231,0.0,6.3,67,0.00,,,0.00,LWC V2.10 B1813,2013-06-17 15:32:00,
2013-06-17 10:37:00,84.2,71.6,29.20,SW,219,3.6,6.7,66,0.00,,,0.00,LWC V2.10 B1813,2013-06-17 15:37:00,
2013-06-17 10:42:00,84.2,71.1,29.20,ESE,105,4.9,5.8,65,0.00,,,0.00,LWC V2.10 B1813,2013-06-17 15:42:00,
2013-06-17 10:47:00,83.3,69.8,29.20,South,180,8.3,8.7,64,0.00,,,0.00,LWC V2.10 B1813,2013-06-17 15:47:00,
2013-06-17 10:52:00,83.5,70.0,29.20,SW,219,6.3,6.3,64,0.00,,,0.00,LWC V2.10 B1813,2013-06-17 15:52:00,
2013-06-17 10:57:00,83.7,70.2,29.20,South,180,4.0,5.8,64,0.00,,,0.00,LWC V2.10 B1813,2013-06-17 15:57:00,
2013-06-17 11:02:00,83.7,69.7,29.20,SSW,197,5.4,8.7,63,0.00,,,0.00,LWC V2.10 B1813,2013-06-17 16:02:00,
2013-06-17 11:07:00,83.8,70.3,29.20,SSW,195,6.3,7.6,64,0.00,,,0.00,LWC V2.10 B1813,2013-06-17 16:07:00,
2013-06-17 11:12:00,84.0,70.5,29.20,SSE,152,4.0,5.4,64,0.00,,,0.00,LWC V2.10 B1813,2013-06-17 16:12:00,
2013-06-17 11:17:00,84.7,70.7,29.20,SSW,212,3.1,8.7,63,0.00,,,0.00,LWC V2.10 B1813,2013-06-17 16:17:00,
2013-06-17 11:22:00,85.5,70.9,29.20,South,181,6.3,6.3,62,0.00,,,0.00,LWC V2.10 B1813,2013-06-17 16:22:00,
2013-06-17 11:27:00,85.6,70.6,29.20,SSE,168,5.8,8.3,61,0.00,,,0.00,LWC V2.10 B1813,2013-06-17 16:27:00,
2013-06-17 11:32:00,85.5,70.0,29.20,SSW,206,5.8,8.7,60,0.00,,,0.00,LWC V2.10 B1813,2013-06-17 16:32:00,
2013-06-17 11:37:00,86.0,70.0,29.20,South,183,3.6,8.1,59,0.00,,,0.00,LWC V2.10 B1813,2013-06-17 16:37:00,
2013-06-17 11:42:00,85.8,69.3,29.20,South,179,5.8,8.3,58,0.00,,,0.00,LWC V2.10 B1813,2013-06-17 16:42:00,
2013-06-17 11:47:00,86.4,70.3,29.20,SE,129,4.0,8.3,59,0.00,,,0.00,LWC V2.10 B1813,2013-06-17 16:47:00,
2013-06-17 11:52:00,86.7,70.6,29.20,SE,145,3.1,7.6,59,0.00,,,0.00,LWC V2.10 B1813,2013-06-17 16:52:00,
2013-06-17 11:57:00,87.1,71.0,29.20,SSW,206,2.7,6.3,59,0.00,,,0.00,LWC V2.10 B1813,2013-06-17 16:57:00,
2013-06-17 12:02:00,86.9,69.8,29.18,SSW,203,6.3,10.1,57,0.00,,,0.00,LWC V2.10 B1813,2013-06-17 17:02:00,
2013-06-17 12:07:00,86.7,69.6,29.18,SSW,210,3.6,8.7,57,0.00,,,0.00,LWC V2.10 B1813,2013-06-17 17:07:00,
2013-06-17 12:12:00,87.1,69.4,29.18,ENE,77,2.7,8.1,56,0.00,,,0.00,LWC V2.10 B1813,2013-06-17 17:12:00,
2013-06-17 12:17:00,87.6,68.3,29.18,South,170,6.3,7.6,53,0.00,,,0.00,LWC V2.10 B1813,2013-06-17 17:17:00,
2013-06-17 12:22:00,88.0,69.2,29.18,SW,219,4.0,8.1,54,0.00,,,0.00,LWC V2.10 B1813,2013-06-17 17:22:00,
2013-06-17 12:27:00,88.3,69.0,29.18,SSW,194,4.0,8.7,53,0.00,,,0.00,LWC V2.10 B1813,2013-06-17 17:27:00,
2013-06-17 12:32:00,88.2,68.3,29.18,SW,216,5.8,8.3,52,0.00,,,0.00,LWC V2.10 B1813,2013-06-17 17:32:00,
2013-06-17 12:37:00,88.5,68.6,29.18,SSE,168,5.4,8.1,52,0.00,,,0.00,LWC V2.10 B1813,2013-06-17 17:37:00,
2013-06-17 12:42:00,88.7,68.8,29.18,South,171,3.1,6.3,52,0.00,,,0.00,LWC V2.10 B1813,2013-06-17 17:42:00,
2013-06-17 12:47:00,89.2,68.7,29.18,SSE,165,6.3,7.6,51,0.00,,,0.00,LWC V2.10 B1813,2013-06-17 17:47:00,
2013-06-17 12:52:00,89.4,68.9,29.18,SSW,192,3.6,8.3,51,0.00,,,0.00,LWC V2.10 B1813,2013-06-17 17:52:00,
2013-06-17 12:57:00,89.6,67.3,29.18,SE,125,5.8,9.6,48,0.00,,,0.00,LWC V2.10 B1813,2013-06-17 17:57:00,
2013-06-17 13:02:00,90.0,67.6,29.18,SSW,198,3.6,5.8,48,0.00,,,0.00,LWC V2.10 B1813,2013-06-17 18:02:00,
2013-06-17 13:07:00,90.7,68.8,29.18,South,173,2.7,8.7,49,0.00,,,0.00,LWC V2.10 B1813,2013-06-17 18:07:00,
2013-06-17 13:12:00,89.8,66.8,29.18,SSW,206,5.8,10.5,47,0.00,,,0.00,LWC V2.10 B1813,2013-06-17 18:12:00,
2013-06-17 13:17:00,90.0,67.6,29.18,ESE,106,4.9,7.6,48,0.00,,,0.00,LWC V2.10 B1813,2013-06-17 18:17:00,
2013-06-17 13:22:00,90.5,68.1,29.18,SSE,147,4.0,7.6,48,0.00,,,0.00,LWC V2.10 B1813,2013-06-17 18:22:00,
2013-06-17 13:27:00,90.7,66.4,29.18,SSW,200,5.8,10.5,45,0.00,,,0.00,LWC V2.10 B1813,2013-06-17 18:27:00,
2013-06-17 13:32:00,91.8,68.6,29.15,SSE,163,7.6,7.6,47,0.00,,,0.00,LWC V2.10 B1813,2013-06-17 18:32:00,
2013-06-17 13:37:00,91.8,68.0,29.15,SE,143,3.1,8.3,46,0.00,,,0.00,LWC V2.10 B1813,2013-06-17 18:37:00,
2013-06-17 13:42:00,91.2,66.2,29.15,SSE,159,5.8,11.4,44,0.00,,,0.00,LWC V2.10 B1813,2013-06-17 18:42:00,
2013-06-17 13:47:00,91.9,66.9,29.15,SSE,161,4.0,10.1,44,0.00,,,0.00,LWC V2.10 B1813,2013-06-17 18:47:00,
2013-06-17 13:52:00,91.8,66.0,29.15,South,174,8.7,10.1,43,0.00,,,0.00,LWC V2.10 B1813,2013-06-17 18:52:00,
2013-06-17 13:57:00,92.5,66.0,29.15,ESE,122,5.8,8.3,42,0.00,,,0.00,LWC V2.10 B1813,2013-06-17 18:57:00,
2013-06-17 14:02:00,91.8,66.0,29.15,SE,131,6.3,7.6,43,0.00,,,0.00,LWC V2.10 B1813,2013-06-17 19:02:00,
2013-06-17 14:07:00,91.9,65.5,29.15,South,174,6.3,8.3,42,0.00,,,0.00,LWC V2.10 B1813,2013-06-17 19:07:00,
2013-06-17 14:12:00,91.6,65.9,29.15,SW,221,7.2,8.1,43,0.00,,,0.00,LWC V2.10 B1813,2013-06-17 19:12:00,
2013-06-17 14:17:00,91.9,65.5,29.15,South,179,5.4,10.5,42,0.00,,,0.00,LWC V2.10 B1813,2013-06-17 19:17:00,
2013-06-17 14:22:00,92.3,65.8,29.15,SSW,196,4.9,6.3,42,0.00,,,0.00,LWC V2.10 B1813,2013-06-17 19:22:00,
2013-06-17 14:27:00,92.1,65.7,29.15,SSW,203,3.6,5.8,42,0.00,,,0.00,LWC V2.10 B1813,2013-06-17 19:27:00,
2013-06-17 14:32:00,92.5,65.3,29.12,SE,134,10.1,10.5,41,0.00,,,0.00,LWC V2.10 B1813,2013-06-17 19:32:00,
2013-06-17 14:37:00,92.7,65.5,29.12,South,189,8.3,12.3,41,0.00,,,0.00,LWC V2.10 B1813,2013-06-17 19:37:00,
2013-06-17 14:42:00,92.5,65.3,29.12,SSE,156,10.5,10.5,41,0.00,,,0.00,LWC V2.10 B1813,2013-06-17 19:42:00,
2013-06-17 14:47:00,93.0,65.8,29.12,SE,136,6.3,7.6,41,0.00,,,0.00,LWC V2.10 B1813,2013-06-17 19:47:00,
2013-06-17 14:52:00,93.2,65.2,29.12,SSW,212,3.6,4.9,40,0.00,,,0.00,LWC V2.10 B1813,2013-06-17 19:52:00,
2013-06-17 14:57:00,93.6,65.6,29.12,SSE,147,3.6,10.5,40,0.00,,,0.00,LWC V2.10 B1813,2013-06-17 19:57:00,
2013-06-17 15:02:00,93.9,65.9,29.12,SSW,202,6.3,9.6,40,0.00,,,0.00,LWC V2.10 B1813,2013-06-17 20:02:00,
2013-06-17 15:07:00,94.3,66.2,29.12,South,175,5.4,8.1,40,0.00,,,0.00,LWC V2.10 B1813,2013-06-17 20:07:00,
2013-06-17 15:12:00,93.6,64.8,29.12,South,182,4.0,8.1,39,0.00,,,0.00,LWC V2.10 B1813,2013-06-17 20:12:00,
2013-06-17 15:17:00,93.7,65.0,29.12,SE,145,5.8,8.7,39,0.00,,,0.00,LWC V2.10 B1813,2013-06-17 20:17:00,
2013-06-17 15:22:00,93.6,64.8,29.12,SSE,152,4.9,8.7,39,0.00,,,0.00,LWC V2.10 B1813,2013-06-17 20:22:00,
2013-06-17 15:27:00,94.3,65.5,29.12,South,173,8.3,8.3,39,0.00,,,0.00,LWC V2.10 B1813,2013-06-17 20:27:00,
2013-06-17 15:32:00,94.1,65.3,29.12,South,169,5.4,8.1,39,0.00,,,0.00,LWC V2.10 B1813,2013-06-17 20:32:00,
2013-06-17 15:37:00,93.7,64.2,29.12,South,171,4.9,9.6,38,0.00,,,0.00,LWC V2.10 B1813,2013-06-17 20:37:00,
2013-06-17 15:42:00,94.1,64.6,29.12,West,280,4.0,4.0,38,0.00,,,0.00,LWC V2.10 B1813,2013-06-17 20:42:00,
2013-06-17 15:46:00,94.6,65.0,29.12,ESE,109,5.4,8.3,38,0.00,,,0.00,LWC V2.10 B1813,2013-06-17 20:46:00,
2013-06-17 15:51:00,94.8,64.4,29.12,South,184,10.5,10.5,37,0.00,,,0.00,LWC V2.10 B1813,2013-06-17 20:51:00,
2013-06-17 15:56:00,94.8,65.2,29.12,SSE,148,5.4,5.4,38,0.00,,,0.00,LWC V2.10 B1813,2013-06-17 20:56:00,
2013-06-17 16:01:00,94.8,64.4,29.09,SW,225,5.8,9.6,37,0.00,,,0.00,LWC V2.10 B1813,2013-06-17 21:01:00,
2013-06-17 16:06:00,95.0,64.6,29.09,SSW,202,4.0,8.1,37,0.00,,,0.00,LWC V2.10 B1813,2013-06-17 21:06:00,
2013-06-17 16:11:00,94.3,64.0,29.09,SSW,205,10.5,10.5,37,0.00,,,0.00,LWC V2.10 B1813,2013-06-17 21:11:00,
2013-06-17 16:16:00,94.6,64.3,29.09,SW,217,3.6,6.3,37,0.00,,,0.00,LWC V2.10 B1813,2013-06-17 21:16:00,
2013-06-17 16:21:00,94.5,64.1,29.09,SW,222,6.3,10.1,37,0.00,,,0.00,LWC V2.10 B1813,2013-06-17 21:21:00,
2013-06-17 16:26:00,95.2,64.7,29.09,SE,129,5.4,6.3,37,0.00,,,0.00,LWC V2.10 B1813,2013-06-17 21:26:00,
2013-06-17 16:32:00,94.8,64.4,29.09,SSW,204,5.8,8.1,37,0.00,,,0.00,LWC V2.10 B1813,2013-06-17 21:32:00,
2013-06-17 16:37:00,94.8,64.4,29.09,East,98,6.7,7.2,37,0.00,,,0.00,LWC V2.10 B1813,2013-06-17 21:37:00,
2013-06-17 16:42:00,95.0,63.8,29.09,SSE,154,4.9,8.3,36,0.00,,,0.00,LWC V2.10 B1813,2013-06-17 21:42:00,
2013-06-17 16:47:00,94.8,64.4,29.09,SE,143,3.6,9.6,37,0.00,,,0.00,LWC V2.10 B1813,2013-06-17 21:47:00,
2013-06-17 16:52:00,94.5,64.1,29.09,SE,144,5.4,14.5,37,0.00,,,0.00,LWC V2.10 B1813,2013-06-17 21:52:00,
2013-06-17 16:57:00,94.6,64.3,29.09,South,176,3.1,11.0,37,0.00,,,0.00,LWC V2.10 B1813,2013-06-17 21:57:00,
2013-06-17 17:02:00,94.1,63.8,29.09,SE,139,5.8,7.6,37,0.00,,,0.00,LWC V2.10 B1813,2013-06-17 22:02:00,
2013-06-17 17:07:00,94.5,64.1,29.09,SSE,162,3.1,8.7,37,0.00,,,0.00,LWC V2.10 B1813,2013-06-17 22:07:00,
2013-06-17 17:12:00,94.3,64.0,29.09,SE,140,5.8,7.6,37,0.00,,,0.00,LWC V2.10 B1813,2013-06-17 22:12:00,
2013-06-17 17:17:00,93.0,62.8,29.09,East,97,5.4,10.1,37,0.00,,,0.00,LWC V2.10 B1813,2013-06-17 22:17:00,
2013-06-17 17:22:00,92.8,62.7,29.09,East,95,5.8,9.6,37,0.00,,,0.00,LWC V2.10 B1813,2013-06-17 22:22:00,
2013-06-17 17:27:00,93.6,63.3,29.09,SE,135,5.8,10.5,37,0.00,,,0.00,LWC V2.10 B1813,2013-06-17 22:27:00,
2013-06-17 17:32:00,93.4,62.4,29.06,SE,125,8.3,8.7,36,0.00,,,0.00,LWC V2.10 B1813,2013-06-17 22:32:00,
2013-06-17 17:37:00,93.6,62.5,29.06,SSE,152,4.0,7.2,36,0.00,,,0.00,LWC V2.10 B1813,2013-06-17 22:37:00,
2013-06-17 17:42:00,93.6,63.3,29.06,SSE,150,4.9,8.3,37,0.00,,,0.00,LWC V2.10 B1813,2013-06-17 22:42:00,
2013-06-17 17:47:00,93.7,62.7,29.06,South,191,8.1,12.8,36,0.00,,,0.00,LWC V2.10 B1813,2013-06-17 22:47:00,
2013-06-17 17:52:00,93.6,62.5,29.06,South,188,5.4,6.3,36,0.00,,,0.00,LWC V2.10 B1813,2013-06-17 22:52:00,
2013-06-17 17:57:00,93.7,62.7,29.06,SW,226,5.8,6.3,36,0.00,,,0.00,LWC V2.10 B1813,2013-06-17 22:57:00,
2013-06-17 18:02:00,93.9,62.9,29.06,SSW,196,4.0,4.0,36,0.00,,,0.00,LWC V2.10 B1813,2013-06-17 23:02:00,
2013-06-17 18:07:00,93.9,62.9,29.06,SSW,213,9.2,9.2,36,0.00,,,0.00,LWC V2.10 B1813,2013-06-17 23:07:00,
2013-06-17 18:12:00,93.7,62.7,29.06,SE,138,6.3,8.7,36,0.00,,,0.00,LWC V2.10 B1813,2013-06-17 23:12:00,
2013-06-17 18:17:00,93.7,62.7,29.06,SSE,153,6.3,8.7,36,0.00,,,0.00,LWC V2.10 B1813,2013-06-17 23:17:00,
2013-06-17 18:22:00,93.7,62.7,29.06,SW,225,5.8,8.7,36,0.00,,,0.00,LWC V2.10 B1813,2013-06-17 23:22:00,
2013-06-17 18:27:00,93.4,62.4,29.06,SW,217,3.1,8.1,36,0.00,,,0.00,LWC V2.10 B1813,2013-06-17 23:27:00,
2013-06-17 18:32:00,93.2,61.4,29.06,SSW,208,4.0,8.1,35,0.00,,,0.00,LWC V2.10 B1813,2013-06-17 23:32:00,
2013-06-17 18:37:00,93.0,62.1,29.06,South,182,3.6,8.3,36,0.00,,,0.00,LWC V2.10 B1813,2013-06-17 23:37:00,
2013-06-17 18:42:00,93.0,62.1,29.06,SW,230,6.3,10.1,36,0.00,,,0.00,LWC V2.10 B1813,2013-06-17 23:42:00,
2013-06-17 18:47:00,93.0,62.1,29.06,SSE,166,4.0,6.3,36,0.00,,,0.00,LWC V2.10 B1813,2013-06-17 23:47:00,
2013-06-17 18:52:00,93.2,62.2,29.06,SSE,164,4.0,4.0,36,0.00,,,0.00,LWC V2.10 B1813,2013-06-17 23:52:00,
2013-06-17 18:57:00,92.8,61.1,29.06,SSE,160,5.8,5.8,35,0.00,,,0.00,LWC V2.10 B1813,2013-06-17 23:57:00,
2013-06-17 19:02:00,92.7,61.0,29.06,South,169,3.6,8.1,35,0.00,,,0.00,LWC V2.10 B1813,2013-06-18 00:02:00,
2013-06-17 19:07:00,92.5,61.6,29.06,SSE,151,3.1,8.1,36,0.00,,,0.00,LWC V2.10 B1813,2013-06-18 00:07:00,
2013-06-17 19:12:00,92.5,61.6,29.06,South,172,5.4,6.3,36,0.00,,,0.00,LWC V2.10 B1813,2013-06-18 00:12:00,
2013-06-17 19:17:00,92.3,60.6,29.06,SSW,201,4.5,8.3,35,0.00,,,0.00,LWC V2.10 B1813,2013-06-18 00:17:00,
2013-06-17 19:22:00,92.1,60.5,29.06,South,188,3.6,5.4,35,0.00,,,0.00,LWC V2.10 B1813,2013-06-18 00:22:00,
2013-06-17 19:27:00,91.9,60.3,29.06,South,174,4.0,6.3,35,0.00,,,0.00,LWC V2.10 B1813,2013-06-18 00:27:00,
2013-06-17 19:32:00,91.8,61.0,29.06,SSE,165,3.1,6.3,36,0.00,,,0.00,LWC V2.10 B1813,2013-06-18 00:32:00,
2013-06-17 19:37:00,91.6,60.8,29.06,South,187,2.2,4.0,36,0.00,,,0.00,LWC V2.10 B1813,2013-06-18 00:37:00,
2013-06-17 19:42:00,91.2,61.3,29.06,South,178,7.2,8.3,37,0.00,,,0.00,LWC V2.10 B1813,2013-06-18 00:42:00,
2013-06-17 19:47:00,91.0,61.1,29.06,SSW,199,3.6,5.4,37,0.00,,,0.00,LWC V2.10 B1813,2013-06-18 00:47:00,
2013-06-17 19:52:00,90.9,60.9,29.06,South,170,5.8,5.8,37,0.00,,,0.00,LWC V2.10 B1813,2013-06-18 00:52:00,
2013-06-17 19:57:00,90.1,60.3,29.06,SW,214,4.0,6.3,37,0.00,,,0.00,LWC V2.10 B1813,2013-06-18 00:57:00,
2013-06-17 20:02:00,90.0,60.9,29.06,South,184,5.4,6.7,38,0.00,,,0.00,LWC V2.10 B1813,2013-06-18 01:02:00,
2013-06-17 20:07:00,89.6,60.6,29.06,SSE,168,3.1,4.9,38,0.00,,,0.00,LWC V2.10 B1813,2013-06-18 01:07:00,
2013-06-17 20:12:00,89.4,60.4,29.06,SSE,150,5.4,5.8,38,0.00,,,0.00,LWC V2.10 B1813,2013-06-18 01:12:00,
2013-06-17 20:17:00,89.2,60.3,29.06,SSE,167,3.6,6.3,38,0.00,,,0.00,LWC V2.10 B1813,2013-06-18 01:17:00,
2013-06-17 20:22:00,88.9,60.7,29.06,SSW,196,4.0,5.4,39,0.00,,,0.00,LWC V2.10 B1813,2013-06-18 01:22:00,
2013-06-17 20:27:00,88.7,60.5,29.06,SW,220,3.6,4.9,39,0.00,,,0.00,LWC V2.10 B1813,2013-06-18 01:27:00,
2013-06-17 20:32:00,88.7,60.5,29.06,South,180,6.3,7.2,39,0.00,,,0.00,LWC V2.10 B1813,2013-06-18 01:32:00,
2013-06-17 20:37:00,88.3,60.2,29.06,SSE,157,5.8,5.8,39,0.00,,,0.00,LWC V2.10 B1813,2013-06-18 01:37:00,
2013-06-17 20:42:00,88.2,60.0,29.06,South,173,4.5,5.4,39,0.00,,,0.00,LWC V2.10 B1813,2013-06-18 01:42:00,
2013-06-17 20:47:00,88.0,60.6,29.06,South,187,5.8,6.3,40,0.00,,,0.00,LWC V2.10 B1813,2013-06-18 01:47:00,
2013-06-17 20:52:00,87.6,60.3,29.06,South,175,6.3,6.3,40,0.00,,,0.00,LWC V2.10 B1813,2013-06-18 01:52:00,
2013-06-17 20:57:00,87.6,60.3,29.06,SSE,150,3.1,5.4,40,0.00,,,0.00,LWC V2.10 B1813,2013-06-18 01:57:00,
2013-06-17 20:59:00,87.6,60.3,29.06,SSE,152,4.0,4.9,40,0.00,,,0.00,LWC V2.10 B1813,2013-06-18 01:59:00,
2013-06-17 21:04:00,87.3,60.6,29.06,SE,141,5.4,5.8,41,0.00,,,0.00,LWC V2.10 B1813,2013-06-18 02:04:00,
2013-06-17 21:09:00,87.3,60.6,29.06,SSE,155,2.7,4.0,41,0.00,,,0.00,LWC V2.10 B1813,2013-06-18 02:09:00,
2013-06-17 21:14:00,86.9,61.0,29.06,SSE,152,3.1,5.4,42,0.00,,,0.00,LWC V2.10 B1813,2013-06-18 02:14:00,
2013-06-17 21:19:00,86.5,60.7,29.03,SSE,162,3.1,5.8,42,0.00,,,0.00,LWC V2.10 B1813,2013-06-18 02:19:00,
2013-06-17 21:25:00,86.5,61.3,29.03,South,170,4.0,6.3,43,0.00,,,0.00,LWC V2.10 B1813,2013-06-18 02:25:00,
2013-06-17 21:30:00,86.5,61.3,29.03,SE,145,5.4,5.4,43,0.00,,,0.00,LWC V2.10 B1813,2013-06-18 02:30:00,
2013-06-17 21:35:00,86.5,62.0,29.06,SE,142,4.9,5.4,44,0.00,,,0.00,LWC V2.10 B1813,2013-06-18 02:35:00,
2013-06-17 21:40:00,86.5,62.0,29.06,South,178,4.0,5.4,44,0.00,,,0.00,LWC V2.10 B1813,2013-06-18 02:40:00,
2013-06-17 21:45:00,86.5,62.0,29.06,South,184,2.2,3.6,44,0.00,,,0.00,LWC V2.10 B1813,2013-06-18 02:45:00,
2013-06-17 21:50:00,86.7,62.8,29.06,SSW,201,2.7,3.6,45,0.00,,,0.00,LWC V2.10 B1813,2013-06-18 02:50:00,
2013-06-17 21:55:00,86.9,63.0,29.06,SW,218,2.7,4.0,45,0.00,,,0.00,LWC V2.10 B1813,2013-06-18 02:55:00,
2013-06-17 22:00:00,86.9,63.0,29.06,SW,226,2.2,2.7,45,0.00,,,0.00,LWC V2.10 B1813,2013-06-18 03:00:00,
2013-06-17 22:05:00,86.7,62.8,29.09,SW,224,2.7,2.7,45,0.00,,,0.00,LWC V2.10 B1813,2013-06-18 03:05:00,
2013-06-17 22:10:00,86.2,62.3,29.09,SSW,209,2.7,3.6,45,0.00,,,0.00,LWC V2.10 B1813,2013-06-18 03:10:00,
2013-06-17 22:15:00,85.6,62.4,29.09,SSE,165,3.1,3.1,46,0.00,,,0.00,LWC V2.10 B1813,2013-06-18 03:15:00,
2013-06-17 22:20:00,85.5,62.3,29.06,SSW,197,3.6,4.0,46,0.00,,,0.00,LWC V2.10 B1813,2013-06-18 03:20:00,
2013-06-17 22:25:00,85.3,62.1,29.06,South,170,2.7,3.6,46,0.00,,,0.00,LWC V2.10 B1813,2013-06-18 03:25:00,
2013-06-17 22:30:00,85.1,62.6,29.06,SSE,160,4.0,4.0,47,0.00,,,0.00,LWC V2.10 B1813,2013-06-18 03:30:00,
2013-06-17 22:35:00,85.3,62.7,29.06,SSE,165,4.9,5.4,47,0.00,,,0.00,LWC V2.10 B1813,2013-06-18 03:35:00,
2013-06-17 22:40:00,85.5,62.3,29.06,South,189,2.7,3.6,46,0.00,,,0.00,LWC V2.10 B1813,2013-06-18 03:40:00,
2013-06-17 22:45:00,85.5,62.3,29.06,SSW,203,0.0,0.0,46,0.00,,,0.00,LWC V2.10 B1813,2013-06-18 03:45:00,
2013-06-17 22:50:00,85.3,62.7,29.09,SSW,203,0.0,0.0,47,0.00,,,0.00,LWC V2.10 B1813,2013-06-18 03:50:00,
2013-06-17 22:55:00,84.6,62.1,29.09,ESE,113,5.4,8.1,47,0.00,,,0.00,LWC V2.10 B1813,2013-06-18 03:55:00,
2013-06-17 23:00:00,84.2,64.1,29.09,South,177,4.9,8.3,51,0.00,,,0.00,LWC V2.10 B1813,2013-06-18 04:00:00,
2013-06-17 23:01:00,84.2,64.6,29.09,South,181,4.0,8.3,52,0.00,,,0.00,LWC V2.10 B1813,2013-06-18 04:01:00,
2013-06-17 23:06:00,84.2,65.7,29.09,South,179,4.9,8.3,54,0.00,,,0.00,LWC V2.10 B1813,2013-06-18 04:06:00,
2013-06-17 23:11:00,84.0,66.6,29.09,South,180,6.3,8.1,56,0.00,,,0.00,LWC V2.10 B1813,2013-06-18 04:11:00,
2013-06-17 23:16:00,83.8,67.5,29.09,SSE,148,6.7,8.1,58,0.00,,,0.00,LWC V2.10 B1813,2013-06-18 04:16:00,
2013-06-17 23:21:00,83.8,68.0,29.09,South,180,8.3,10.5,59,0.00,,,0.00,LWC V2.10 B1813,2013-06-18 04:21:00,
2013-06-17 23:26:00,83.8,68.9,29.09,SSE,165,7.6,10.1,61,0.00,,,0.00,LWC V2.10 B1813,2013-06-18 04:26:00,
2013-06-17 23:31:00,83.7,68.8,29.09,SW,234,6.3,6.3,61,0.00,,,0.00,LWC V2.10 B1813,2013-06-18 04:31:00,
2013-06-17 23:36:00,83.7,69.7,29.09,South,172,8.1,10.5,63,0.00,,,0.00,LWC V2.10 B1813,2013-06-18 04:36:00,
2013-06-17 23:41:00,83.5,70.0,29.09,South,169,8.1,10.5,64,0.00,,,0.00,LWC V2.10 B1813,2013-06-18 04:41:00,
2013-06-17 23:46:00,83.5,70.4,29.09,South,185,6.3,10.1,65,0.00,,,0.00,LWC V2.10 B1813,2013-06-18 04:46:00,
2013-06-17 23:51:00,83.3,70.7,29.09,SE,143,6.7,12.8,66,0.00,,,0.00,LWC V2.10 B1813,2013-06-18 04:51:00,
2013-06-17 23:56:00,83.3,71.2,29.09,SSE,163,5.4,11.0,67,0.00,,,0.00,LWC V2.10 B1813,2013-06-18 04:56:00,